Погода в Калаче

Погода в Калаче : погода сейчас, прогноз погоды и архив. Всё, что Вы хотите узнать о погоде в Калаче!

Поиск расширенной информации на нашем сайте:

Другие новости

Новости СМИ2

Главная страница сайта

Новости сайта

03.07.2017

Напоминаем, что на нашем специализированном сайте Метеоцентр.Азия вы можете получить высокодетализированные автоматические прогнозы погоды по пунктам России, СНГ и мира в авиационном формате (включающие направление и скорость ветра, видимость, явления погоды, количество и форму облачности, нижнюю и верхнюю границу облачности).


Погода в Калаче - сегодня

Время (UTC), дата Ветер
(°,м/с) 
Видим.   Явления Облачность Т
(°С)
Тd
(°С)
f(%) Тe
(°С)
Pmin
(гПа)
dP
(гПа)
Po
(мм)
O2
(г/м3)
Тmin Tmax R s Состояние
почвы
06 18.04.18 230 (ЮЗ) 20000 м    10/10 2000 м 
[Ac As]
+16 +6.7 54 +16  1016.1  -1.3  754  286           
15 18.04.18 240 (ЮЗ) 10 км  слаб. ливневой дождь  10/10 300 м кучево-дожд. 
[Cb calv]
+11.7 +11.1 96 +14  1012  -2.2  751  288    +20.1     
18 18.04.18 240 (ЮЗ) 10 км  {ливн. осадки}  1/1 2000 м средняя 
[Ac lent]
+9.6 +9 96 +10  1012.7  0.5  751  291           
21 18.04.18 250 (З) 10 км    ясно 
+8.8 +8 95 +9  1011  -1.6  750  291           
00 19.04.18 210 (ЮЗ) 10 км    ясно 
+5.9 +5 94 +6  1008.7  -2.5  748  294           
06 19.04.18 250 (З) 10 км    10/8 600 м средняя 
[Sc|Ac trans]
+8.7 +6.1 84 +8  1003.6  -2.4  744  290           
09 19.04.18 240 (ЮЗ) 10 км    10/6 300 м 
[Sc]
+10.1 +5.8 75 +9  1001.5  -1.9  743  288           
15 19.04.18 270 (З) 10 км  слаб. дождь  10/10 300 м 
[Frnb|Ns]
+8.3 +6.3 87 +8  998.9  -1.2  741  289    +11.6     
15 20.04.18 350 (С) 5{12}  10 км    10/10 300 м 
[Sc]
+9.9 +6.9 82 +9  1008  2.4  748  290    +10.8  0.7     
18 20.04.18 340 (С) 2{10}  10 км    8/8 2000 м средняя 
[Ac trans]
+8.4 +5.5 82 +8  1010.4  2.4  749  292           
21 20.04.18 340 (С) 10 км    8/0 верхняя 
[Cs]
+6.3 +3.7 83 +7  1011.4  0.9  750  295           
00 21.04.18 320 (СЗ) 10 км    3/0 верхняя 
[Cs]
+3.8 +2.3 90 +5  1012  0.4  750  298           
06 21.04.18 200 (Ю) 20000 м    5/4 2000 м средняя, верхняя 
[Ac cast|Ci fib]
+10 +4.1 67 +10  1012.2  -0.2  751  291           
09 21.04.18 270 (З) 20000 м    9/1 600 м средняя, верхняя 
[Cu hum|Ac cast|Cs]
+16 +0.9 36 +16  1010.2  -1.8  749  285           
15 21.04.18 230 (ЮЗ) 6-11{13}  10 км    3/1 2000 м средняя, верхняя 
[Ac lent|Cs]
+18 +0.2 30 +18  1002.7  -4.6  744  281    +18.5       
18 21.04.18 220 (ЮЗ) 4{11}  10 км    5/5 2000 м средняя 
[Ac trans]
+13.7 +2.1 45 +13  1001.7  -1.1  743  285           
21 21.04.18 220 (ЮЗ) 5{10}  10 км    6/6 2000 м средняя 
[Ac cast]
+12 +2.3 51 +11  998.2  -3.5  740  285           
15 22.04.18 330 (СЗ) 2{14}  20000 м  в посл. час ливневой дождь  9/8 300 м кучево-дожд., средняя 
[Cb calv|Ac lent]
+8.7 +3.9 72 +9  1001.7  1.4  743  289    +14.8  0.3     
21 22.04.18 320 (СЗ) 10 км    9/9 2000 м средняя 
[Ac cast]
+5.1 +2.9 86 +6  1004.6  1.1  745  294           
03 23.04.18 350 (С) 10 км    8/8 300 м кучево-дожд. 
[Cb calv]
+2.5 -0.5 81 +3  1008.2  1.8  748  299  +2.5        сухая 
09 23.04.18 350 (С) 5{10}  20000 м    9/9 2000 м средняя 
[Ac As]
+5.7 -4.5 48 +4  1011.4  1.8  750  297           
15 23.04.18 330 (СЗ) 2{10}  20000 м    8/8 600 м 
[Sc]
+6.5 -9 32 +6  1012.9  1.1  751  297    +7.6  0.3     
18 23.04.18 250 (З) 10 км    1/1 2000 м средняя 
[Ac lent]
+3.1 -6.9 48 +3  1014.4  1.4  752  300           
21 23.04.18 310 (СЗ) 10 км    3/0 верхняя 
[Cs]
+1.1 -4.9 64 +2  1014.9  0.4  753  303           
00 24.04.18 тихо ()   10 км    3/0 верхняя 
[Cs]
-1.4 -5 76 -1  1015.7  0.6  753  306           
Время (UTC), дата Ветер
(°,м/с) 
Видим.   Явления Облачность Т
(°С)
Тd
(°С)
f(%) Тe
(°С)
Pmin
(гПа)
dP
(гПа)
Po
(мм)
O2
(г/м3)
Тmin Tmax R s Состояние
почвы

Для получения пояснительной информации подведите курсор к названию столбца.

ПОГОДА в Калаче - архив

Всё, что Вы хотите узнать о погоде в Калаче - удобно и подробно!

Выберите нужную дату (начиная с 1 января 2015* года) и нажмите кнопку "Найти".
Будут отображены архивные сводки погоды по пункту Калач, начиная с указанной даты.


Отображать данные в формате CSV (для использования в таблицах Excel)


Внимание! Наш архив погоды предназначен исключительно для личного некоммерческого использования в познавательных целях. Если Вам необходимы официальные справки о состоянии погоды (для производственных, юридических, коммерческих и т.п. целей), обращайтесь в органы Росгидромета.

*Примечание: данная дата относится к архиву по метеостанциям СССР (Россия, СНГ, Балтия).
Архив по метеостанциям Зарубежной Европы и Азии (кроме Китая) хранится 10 дней, по другим регионам земного шара (Китай, Африка, Америка, Австралия, Океания) - 1 день.

Калач - район местоположения метеостанции


Название, широта, долгота, высота метеостанции:
Калач 50.4°ш. 41.1°д. 92 м над ур. моря [Российская Федерация]

Дополнительная информация

В oтличие oт бoльшинства пoгoдных сайтoв мы публикуем пoдрoбную метеoинфoрмацию в детальнoм прoфессиoнальнoм фoрмате.

Характеристики температуры и влажнoсти вoздуха измеряются на высoте 2 м в тени вдали oт зданий и деревьев.
Скoрoсть ветра измеряется на высoте 10 м (на урoвне рoста челoвека скoрoсть ветра ниже в 1.5-2 раза). Если метеoстанция нахoдится в гoрoде или в лесу, тo скoрoсть ветра занижена на 2-4 м/с пo сравнению с oткрытым местoм. Скoрoсть ветра над акватoриями крупных рек и oзёр, а также на вершинах хoлмoв на 2-5 м/с выше, чем в oбычных услoвиях.
Атмoсфернoе давление в разных тoчках местнoсти мoжет значительнo oтличаться oт давления на метеoстанции, в зависимoсти oт услoвий рельефа (при пoдъёме на 10 м давление пoнижается примернo на 1 мм рт.ст.).